Clearfield, PA

3:24 AM EDT on October 01, 2016 (GMT -0400)
Clearfield-Lawrence

Weather History for KFIG - July, 2013

Change the Weather History Date:

Monday, July 15, 2013

  Actual Average (KDUJ) Record (KDUJ)
Temperature  
Mean Temperature 76 °F 69 °F  
Max Temperature 89 °F 79 °F 94 °F (1995)
Min Temperature 64 °F 58 °F 49 °F (1967)
Degree Days  
Heating Degree Days 0 1  
Month to date heating degree days 15  
Since 1 June heating degree days 100  
Since 1 July heating degree days 15  
Cooling Degree Days 12 4  
Month to date cooling degree days 60  
Year to date cooling degree days 154  
Since 1 June cooling degree days 131  
Growing Degree Days 26 (Base 50)    
Moisture  
Dew Point 67 °F    
Average Humidity 78    
Maximum Humidity 100    
Minimum Humidity 49    
Precipitation  
Precipitation 0.00 in 0.14 in 1.24 in (1992)
Month to date precipitation 2.12  
Sea Level Pressure  
Sea Level Pressure 30.32 in    
Wind  
Wind Speed 3 mph (West)    
Max Wind Speed 9 mph    
Max Gust Speed -    
Visibility 8 miles    
Events Fog , Thunderstorm    
T = Trace of Precipitation, MM = Missing Value Source: NWS Daily Summary

Daily Weather History Graph

Daily Weather History Graph

Search for Another Location

Airport or City:

Trip Planner

Search our weather history database for the weather conditions in past years. The results will help you decide how hot, cold, wet, or windy it might be!

Date:

Astronomy

Jul. 15, 2013 Rise Set
Actual Time 5:54 AM EDT 8:44 PM EDT
Civil Twilight 5:21 AM EDT 9:16 PM EDT
Nautical Twilight 4:40 AM EDT 9:57 PM EDT
Astronomical Twilight 3:53 AM EDT 10:44 PM EDT
Moon 1:16 PM EDT (7/15) No Moon Set
Length of Visible Light 15h 54m
Length of Day
14h 49m
Waxing Crescent, 45% of the Moon is Illuminated
Jul 15
Waxing Crescent
Jul 15
First Quarter
Jul 22
Full
Jul 29
Last Quarter
Aug 6
New

Hourly Weather History & Observations

Time (EDT) Temp. Heat Index Dew Point Humidity Pressure Visibility Wind Dir Wind Speed Gust Speed Precip Events Conditions
12:54 AM 66.9 °F - 64.9 °F 93% 30.31 in 10.0 mi North 4.6 mph - N/A   Clear
1:54 AM 66.0 °F - 64.0 °F 93% 30.32 in 10.0 mi NNW 3.5 mph - N/A   Clear
2:54 AM 64.9 °F - 64.0 °F 97% 30.32 in 10.0 mi North 3.5 mph - N/A   Clear
3:54 AM 64.9 °F - 63.0 °F 93% 30.32 in 10.0 mi Calm Calm - N/A   Clear
4:28 AM 64.4 °F - 62.6 °F 94% 30.35 in 9.0 mi Calm Calm - N/A   Scattered Clouds
4:36 AM 64.4 °F - 62.6 °F 94% 30.35 in 2.5 mi Calm Calm - N/A   Mostly Cloudy
4:44 AM 64.4 °F - 62.6 °F 94% 30.35 in 0.8 mi Calm Calm - N/A   Mist
4:54 AM 64.0 °F - 63.0 °F 96% 30.32 in 0.5 mi Calm Calm - N/A Fog Fog
5:29 AM 64.4 °F - 62.6 °F 94% 30.35 in 0.2 mi Calm Calm - N/A Fog Fog
5:54 AM 64.0 °F - 63.0 °F 96% 30.33 in 0.2 mi Calm Calm - N/A Fog Fog
6:54 AM 64.0 °F - 64.0 °F 100% 30.35 in 0.2 mi Calm Calm - N/A Fog Fog
7:54 AM 66.0 °F - 66.0 °F 100% 30.35 in 0.2 mi Calm Calm - N/A Fog Fog
8:18 AM 66.2 °F - 66.2 °F 100% 30.38 in 1.0 mi Calm Calm - N/A   Mist
8:22 AM 66.2 °F - 66.2 °F 100% 30.38 in 3.0 mi Calm Calm - N/A   Overcast
8:41 AM 69.8 °F - 66.2 °F 88% 30.38 in 10.0 mi SSW 3.5 mph - N/A   Scattered Clouds
8:54 AM 69.1 °F - 66.9 °F 93% 30.36 in 10.0 mi Calm Calm - N/A   Clear
9:54 AM 77.0 °F - 68.0 °F 74% 30.35 in 10.0 mi SSW 4.6 mph - N/A   Clear
10:54 AM 82.0 °F 84.9 °F 68.0 °F 62% 30.34 in 10.0 mi WNW 5.8 mph - N/A   Mostly Cloudy
11:54 AM 84.9 °F 88.2 °F 68.0 °F 57% 30.33 in 10.0 mi Variable 4.6 mph - N/A   Scattered Clouds
12:54 PM 84.0 °F 86.5 °F 66.9 °F 56% 30.32 in 10.0 mi West 5.8 mph - N/A   Mostly Cloudy
1:54 PM 87.1 °F 89.2 °F 66.0 °F 49% 30.30 in 10.0 mi WNW 6.9 mph - N/A   Mostly Cloudy
2:54 PM 89.1 °F 92.9 °F 68.0 °F 50% 30.29 in 10.0 mi West 8.1 mph - N/A   Scattered Clouds
3:54 PM 87.1 °F 90.6 °F 68.0 °F 53% 30.28 in 10.0 mi WSW 8.1 mph - N/A   Mostly Cloudy
4:54 PM 87.1 °F 90.6 °F 68.0 °F 53% 30.27 in 10.0 mi WSW 5.8 mph - N/A Thunderstorm Scattered Clouds
5:09 PM 87.8 °F 91.4 °F 68.0 °F 52% 30.30 in 10.0 mi Variable 5.8 mph - N/A   Partly Cloudy
5:54 PM 86.0 °F 89.4 °F 68.0 °F 55% 30.26 in 10.0 mi West 6.9 mph - N/A   Scattered Clouds
6:51 PM 84.2 °F 87.3 °F 68.0 °F 58% 30.29 in 10.0 mi West 4.6 mph - N/A Thunderstorm Scattered Clouds
6:54 PM 84.0 °F 87.0 °F 68.0 °F 58% 30.26 in 10.0 mi West 5.8 mph - N/A Thunderstorm Scattered Clouds
7:29 PM 80.6 °F 83.2 °F 68.0 °F 65% 30.29 in 10.0 mi West 8.1 mph - N/A   Scattered Clouds
7:54 PM 79.0 °F - 66.9 °F 66% 30.26 in 10.0 mi West 9.2 mph - N/A   Mostly Cloudy
8:54 PM 77.0 °F - 69.1 °F 76% 30.27 in 10.0 mi SW 4.6 mph - N/A   Partly Cloudy
9:24 PM 78.8 °F - 69.8 °F 74% 30.30 in 10.0 mi Calm Calm - N/A Thunderstorm Overcast
9:39 PM 77.0 °F - 69.8 °F 78% 30.30 in 10.0 mi NE 3.5 mph - N/A Thunderstorm Mostly Cloudy
9:54 PM 75.9 °F - 70.0 °F 82% 30.28 in 10.0 mi Calm Calm - N/A Thunderstorm Mostly Cloudy
10:06 PM 77.0 °F - 69.8 °F 78% 30.31 in 10.0 mi Calm Calm - N/A   Mostly Cloudy
10:54 PM 77.0 °F - 70.0 °F 79% 30.29 in 10.0 mi Calm Calm - N/A Thunderstorm Overcast
11:13 PM 77.0 °F - 69.8 °F 78% 30.32 in 10.0 mi Calm Calm - N/A   Mostly Cloudy
11:54 PM 75.0 °F - 70.0 °F 84% 30.28 in 10.0 mi Calm Calm - N/A   Clear